Weather History for West Palm Beach, FL

Change the Weather History Date:

Sunday, March 30, 2014

  Actual Average Record
Temperature  
Mean Temperature 70 °F 72 °F  
Max Temperature 79 °F 80 °F 91 °F (1991)
Min Temperature 61 °F 64 °F 48 °F (1941)
Degree Days  
Heating Degree Days 0 0  
Month to date heating degree days 7 22  
Since 1 July heating degree days 122 227  
Cooling Degree Days 5 7  
Month to date cooling degree days 200 186  
Year to date cooling degree days 546 421  
Growing Degree Days 21 (Base 50)    
Moisture  
Dew Point 54 °F    
Average Humidity 58    
Maximum Humidity 93    
Minimum Humidity 22    
Precipitation  
Precipitation 0.00 in 0.15 in 4.74 in (1937)
Month to date precipitation 2.40 4.43  
Year to date precipitation 13.88 10.38  
Snow  
Snow 0.00 in - - ()
Month to date snowfall 0.0  
Since 1 July snowfall 0.0  
Snow Depth 0.00 in    
Sea Level Pressure  
Sea Level Pressure 29.98 in    
Wind  
Wind Speed 9 mph (WNW)    
Max Wind Speed 20 mph    
Max Gust Speed 24 mph    
Visibility 10 miles    
Events      
T = Trace of Precipitation, MM = Missing Value Source: NWS Daily Summary

Daily Weather History Graph

Daily Weather History Graph

Search for Another Location

Airport:

Trip Planner

Search our weather history database for the weather conditions in past years. The results will help you decide how hot, cold, wet, or windy it might be!

Date:

Astronomy

Mar. 30, 2014 Rise Set
Actual Time 7:13 AM EDT 7:36 PM EDT
Civil Twilight 6:50 AM EDT 7:59 PM EDT
Nautical Twilight 6:22 AM EDT 8:27 PM EDT
Astronomical Twilight 5:55 AM EDT 8:54 PM EDT
Moon 6:57 AM EDT (3/30) 7:44 PM EDT (3/30)
Length of Visible Light 13h 09m
Length of Day
12h 23m
Waning Crescent, 0% of the Moon is Illuminated
Mar 30
Waning Crescent
Mar 30
New
Apr 7
First Quarter
Apr 15
Full
Apr 22
Last Quarter

Hourly Weather History & Observations

Time (EDT) Temp. Dew Point Humidity Pressure Visibility Wind Dir Wind Speed Gust Speed Precip Events Conditions
12:53 AM 69.1 °F 63.0 °F 81% 29.94 in 10.0 mi WSW 6.9 mph - N/A   Partly Cloudy
1:53 AM 69.1 °F 63.0 °F 81% 29.93 in 10.0 mi West 10.4 mph - N/A   Partly Cloudy
2:53 AM 68.0 °F 64.0 °F 87% 29.92 in 10.0 mi WSW 10.4 mph - N/A   Partly Cloudy
3:53 AM 66.9 °F 64.0 °F 90% 29.90 in 10.0 mi West 8.1 mph - N/A   Partly Cloudy
4:11 AM 68.0 °F 64.0 °F 87% 29.91 in 10.0 mi WSW 6.9 mph - N/A   Mostly Cloudy
4:53 AM 68.0 °F 64.9 °F 90% 29.91 in 10.0 mi WSW 5.8 mph - N/A   Mostly Cloudy
5:07 AM 68.0 °F 64.9 °F 90% 29.91 in 10.0 mi West 5.8 mph - N/A   Overcast
5:53 AM 69.1 °F 66.0 °F 90% 29.91 in 10.0 mi WNW 3.5 mph - N/A   Overcast
6:10 AM 69.1 °F 66.0 °F 90% 29.92 in 10.0 mi WNW 3.5 mph - N/A   Mostly Cloudy
6:41 AM 68.0 °F 64.9 °F 90% 29.94 in 10.0 mi WNW 3.5 mph - N/A   Mostly Cloudy
6:53 AM 68.0 °F 64.9 °F 90% 29.94 in 10.0 mi WNW 5.8 mph - N/A   Mostly Cloudy
7:53 AM 68.0 °F 63.0 °F 84% 29.97 in 10.0 mi NW 9.2 mph - N/A   Mostly Cloudy
8:53 AM 66.9 °F 60.1 °F 79% 30.01 in 10.0 mi NNW 13.8 mph - N/A   Mostly Cloudy
9:53 AM 68.0 °F 59.0 °F 73% 30.03 in 10.0 mi NW 13.8 mph - N/A   Mostly Cloudy
10:53 AM 72.0 °F 57.9 °F 61% 30.04 in 10.0 mi NW 12.7 mph - N/A   Scattered Clouds
11:53 AM 73.9 °F 55.0 °F 52% 30.03 in 10.0 mi NW 15.0 mph - N/A   Scattered Clouds
12:53 PM 75.9 °F 42.1 °F 30% 30.03 in 10.0 mi NW 12.7 mph 19.6 mph N/A   Scattered Clouds
1:53 PM 77.0 °F 44.1 °F 31% 30.01 in 10.0 mi NW 16.1 mph 19.6 mph N/A   Scattered Clouds
2:53 PM 75.9 °F 39.0 °F 26% 30.00 in 10.0 mi WNW 15.0 mph 21.9 mph N/A   Mostly Cloudy
3:53 PM 77.0 °F 46.0 °F 33% 29.98 in 10.0 mi West 4.6 mph - N/A   Mostly Cloudy
4:53 PM 78.1 °F 39.0 °F 25% 29.97 in 10.0 mi NNW 11.5 mph - N/A   Mostly Cloudy
5:53 PM 77.0 °F 35.1 °F 22% 29.98 in 10.0 mi NW 10.4 mph - N/A   Mostly Cloudy
6:53 PM 73.9 °F 42.1 °F 32% 29.98 in 10.0 mi West 9.2 mph - N/A   Mostly Cloudy
7:53 PM 69.1 °F 43.0 °F 39% 30.00 in 10.0 mi West 9.2 mph - N/A   Mostly Cloudy
8:53 PM 66.0 °F 46.0 °F 48% 30.02 in 10.0 mi West 5.8 mph - N/A   Mostly Cloudy
9:53 PM 63.0 °F 46.9 °F 56% 30.04 in 10.0 mi NW 4.6 mph - N/A   Scattered Clouds
10:53 PM 66.0 °F 48.0 °F 52% 30.05 in 10.0 mi West 3.5 mph - N/A   Mostly Cloudy
11:53 PM 63.0 °F 50.0 °F 63% 30.07 in 10.0 mi WNW 5.8 mph - N/A   Mostly Cloudy